Flag for U.S.A. Weather past 2 weeks in Norfolk, Virginia, U.S.A.

Now
75 °F

Passing clouds.


Feels Like: 77 °F
Forecast: 64 / 76 °F
Wind: 8 mph from Northeast

Location: Norfolk Naval Air Station

Current Time: Sep 30, 2014 at 2:59:23 PM

Latest Report: Sep 30, 2014 at 1:59 PM


Visibility: 10 mi

Pressure: 29.89 "Hg

Humidity: 64%

Dew point: 62 °F

Location of NorfolkLocation

Historic Weather in Norfolk — Graph

°F

Norfolk temperature yesterday

Maximum temperature yesterday: 74 °F (at 1:59 PM)
Minimum temperature yesterday: 64 °F (at 1:59 AM)
Average temperature yesterday: 69 °F

Past Weeks' High & Low Weather Summary

 TemperatureHumidityPressure
High81 °F (Sep 21, 4:59 PM)93% (Sep 24, 8:59 PM)30.34 "Hg (Sep 24, 8:59 PM)
Low62 °F (Sep 28, 1:59 AM)40% (Sep 22, 10:59 AM)29.72 "Hg (Sep 21, 3:59 PM)
Average71 °F72%30.10 "Hg
* Reported Sep 15 1:59 PM — Sep 30 1:59 PM, Norfolk, Weather by CustomWeather, © 2014

Note: Actual official high and low records may vary slightly from our data, if they occured in-between our weather recording intervals... More about our weather records

Advertising

Norfolk weather history for previous 24 hours

 ConditionsComfort  
Time TempWeatherWind HumidityBarometerVisibility
1:59 PM
Sep 30
75 °FPassing clouds.8 mph64%29.89 "Hg10 mi
12:59 PM75 °FPassing clouds.7 mph62%29.91 "Hg10 mi
11:59 AM74 °FPassing clouds.9 mph71%29.93 "Hg10 mi
10:59 AM74 °FPassing clouds.7 mph69%29.93 "Hg10 mi
9:59 AM72 °FPassing clouds.5 mph68%29.93 "Hg10 mi
8:59 AM71 °FPassing clouds.5 mph76%29.93 "Hg10 mi
7:59 AM67 °FScattered clouds.No wind90%29.93 "Hg10 mi
6:59 AM66 °FPassing clouds.No wind90%29.93 "Hg10 mi
5:59 AM66 °FPassing clouds.No wind90%29.92 "Hg10 mi
4:59 AM66 °FPassing clouds.3 mph90%29.92 "Hg10 mi
3:59 AM66 °FPassing clouds.No wind90%29.92 "Hg10 mi
2:59 AM67 °FMostly cloudy.3 mph90%29.93 "Hg10 mi
1:59 AM67 °FLight rain. Mostly cloudy.3 mph90%29.96 "Hg10 mi
12:59 AM67 °FLight rain. Mostly cloudy.7 mph87%29.94 "Hg10 mi
11:59 PM
Sep 29
68 °FLight rain. Mostly cloudy.3 mph87%29.96 "Hg10 mi
10:59 PM69 °FOvercast.5 mph84%29.98 "Hg10 mi
9:59 PM69 °FMostly cloudy.3 mph81%29.98 "Hg10 mi
8:59 PM69 °FMostly cloudy.3 mph81%29.97 "Hg10 mi
7:59 PM70 °FMostly cloudy.No wind79%29.96 "Hg10 mi
6:59 PM70 °FMostly cloudy.5 mph81%29.97 "Hg10 mi
5:59 PM72 °FMostly cloudy.6 mph73%29.96 "Hg10 mi
4:59 PM73 °FMostly cloudy.3 mph69%29.97 "Hg10 mi
3:59 PM74 °FMostly cloudy.5 mph71%29.97 "Hg10 mi
2:59 PM74 °FMostly cloudy.6 mph71%29.98 "Hg10 mi
Weather by CustomWeather, © 2014

See weather overviewHow to use our weather pages